Regional Weather Roundup
Issued by NWS

Home | Current Version | Previous Version | Graphics & Text | Print | Product List | Glossary On
Versions: 1 2 3 4 5 6 7 8 9 10 11 12 13 14 15 16 17 18 19 20 21 22 23 24 25 26 27 28 29 30 31 32 33 34 35 36 37 38 39 40 41 42 43 44 45 46 47 48 49 50
000
ASUS43 KMKX 240111
RWRWI

WISCONSIN REGIONAL WEATHER ROUNDUP
NATIONAL WEATHER SERVICE MILWAUKEE/SULLIVAN WI
800 PM CDT MON OCT 23 2017

NOTE: "FAIR" INDICATES FEW OR NO CLOUDS BELOW 12,000 FEET WITH NO
SIGNIFICANT WEATHER AND/OR OBSTRUCTIONS TO VISIBILITY.

WIZ001-002-006>008-014>016-023>028-240200-
NORTHWEST WISCONSIN

CITY           SKY/WX    TMP DP  RH WIND       PRES   REMARKS
SUPERIOR ARPT  CLOUDY    47  40  78 NW14G20   29.82R
ASHLAND        CLOUDY    52  43  71 NW16G25   29.73R
HAYWARD        CLOUDY    49  41  74 NW12G20   29.75S
SIREN          CLOUDY    46  38  75 N17G30    29.82R
CUMBERLAND     CLOUDY    45  37  76 NW22G29   29.77S
RICE LAKE      CLOUDY    49  40  71 NW9G21    29.78R
CHETEK         CLOUDY    49  42  78 NW10G18   29.75S
LADYSMITH      DRIZZLE   49  43  79 NW15G21   29.73R
EAU CLAIRE     NOT AVBL
MENOMONIE      MOCLDY    49  40  71 NW20G25   29.76S
NEW RICHMOND   CLOUDY    47  35  64 NW26G36   29.81R
OSCEOLA        CLOUDY    48  35  61 NW17G31   29.86R
$$

WIZ003>005-009-010-017-018-240200-
NORTH CENTRAL WISCONSIN

CITY           SKY/WX    TMP DP  RH WIND       PRES   REMARKS
MANITOWISH WTR RAIN      50  47  87 NW8       29.66S
ARBOR VITAE    CLOUDY    49  46  90 CALM      29.64F
WOODRUFF       CLOUDY    49  46  90 CALM      29.64F
RHINELANDER    LGT RAIN  48  46  93 CALM      29.65F
EAGLE RIVER    LGT RAIN  48  43  81 CALM      29.64S
LAND O LAKES   CLOUDY    49  43  81 N3        29.66F
PHILLIPS       LGT RAIN  47  47  97 NW9G18    29.68S
TOMAHAWK       CLOUDY    46  42  84 W3        29.65F
MEDFORD        CLOUDY    49  44  84 NW9       29.66S
MERRILL        LGT RAIN  48  45  88 CALM      29.65F
$$

WIZ029-030-035-036-043>047-240200-
CENTRAL WISCONSIN

CITY           SKY/WX    TMP DP  RH WIND       PRES   REMARKS
WAUSAU         LGT RAIN  49  45  86 NW5       29.63S
MOSINEE        LGT RAIN  48  45  87 W7        29.65S
MARSHFIELD     LGT RAIN  50  44  80 NW14      29.65F
STEVENS POINT  LGT RAIN  50  42  76 W3        29.65S
WAUPACA        CLOUDY    50  48  93 CALM      29.64F
WAUTOMA        CLOUDY   N/A N/A N/A MISG      29.64F
WISC RAPIDS    LGT RAIN  49  46  90 W7        29.66S
CAMP DOUGLAS   CLOUDY    50  46  87 W8        29.67S
$$

WIZ011>013-019>022-031-037>040-048>050-240200-
NORTHEAST WISCONSIN

CITY           SKY/WX    TMP DP  RH WIND       PRES   REMARKS
ANTIGO         PTCLDY    45  44  95 CALM      29.64S
SHAWANO        CLOUDY    51  46  85 CALM      29.63F
OCONTO         CLOUDY    47  46  97 CALM      29.62F
STURGEON BAY   CLOUDY    49  46  90 N3        29.62F
GREEN BAY      CLOUDY    50  47  89 CALM      29.63F
MANITOWOC      NOT AVBL
APPLETON       CLOUDY    48  43  81 CALM      29.62F
CLINTONVILLE   CLOUDY    48  45  87 CALM      29.63F
OSHKOSH        CLOUDY    49  45  86 CALM      29.62F
$$

WIZ032>034-041-042-053>061-240200-
SOUTHWEST WISCONSIN

CITY           SKY/WX    TMP DP  RH WIND       PRES   REMARKS
LA CROSSE      CLEAR     53  42  66 NW17G29   29.72S
SPARTA         CLOUDY    51  43  73 NW13G18   29.70S
VIROQUA        PTCLDY    48  41  76 W12G21    29.71S
BOSCOBEL       CLOUDY    53  42  66 W14G22    29.72S
PRAIRIE DU CHI MOCLDY    51  38  61 W10G18    29.75R
PLATTEVILLE    CLOUDY    50  46  87 W16       29.71F
$$

WIZ056-057-062-063-064-067-068-240200-
SOUTH CENTRAL WISCONSIN

CITY           SKY/WX    TMP DP  RH WIND       PRES   REMARKS
REEDSBURG      CLOUDY    51  44  78 W7        29.67F
BARABOO/DELLS  LGT RAIN  50  43  76 W7        29.67S
LONE ROCK      CLOUDY    50  48  93 W6        29.69F
MINERAL POINT  CLOUDY    50  50 100 W7        29.69F
MADISON        LGT RAIN  52  43  71 VRB6      29.65F
MIDDLETON      CLOUDY    51  46  81 W9        29.67S
WATERTOWN      CLOUDY    50  49  97 CALM      29.63F
MONROE         LGT RAIN  50  45  81 NW8       29.68S
JANESVILLE     CLOUDY    55  46  71 NW12      29.65S
$$

WIZ051-052-058>065-066-070>072-240200-
SOUTHEAST WISCONSIN

CITY           SKY/WX    TMP DP  RH WIND       PRES   REMARKS
MILWAUKEE      CLOUDY    52  45  77 CALM      29.63F
WAUKESHA       CLOUDY    48  43  81 W6        29.63F
MILWAUKEE/TIMM CLOUDY    48  43  81 CALM      29.63F
RACINE         CLOUDY    50  46  86 W3        29.64F
BURLINGTON     CLOUDY    48  48  98 CALM      29.63F
KENOSHA        CLOUDY    49  46  90 W3        29.63F
FOND DU LAC    CLOUDY    50  45  83 CALM      29.63F
SHEBOYGAN      CLOUDY    49  47  93 NW3       29.62F
WEST BEND      CLOUDY    46  45  93 CALM      29.62F
JUNEAU         CLOUDY    48  46  91 CALM      29.64F
$$

LSZ147-162-240200-
LAKE SUPERIOR

STATION/POSITION TIME  TEMP    WIND        PRES    WAVE
                       AIR SEA DIR/SP/G            HT/PER
                 (UTC) (F)     (DEG/KT/KT) (MB)    (FT/S)
W MID LAKE BUOY  0050   52 51              1004.8F   1/ 3
DEVILS ISLAND    0000   53     330/ 24/ 27 1006.2R
PORT WING        0051          320/ 24/ 25 1008.5R
SAXON HARBOR     0040   56     320/ 19/ 23 1005.4R
$$

LMZ867-665-643>646-240200-
LAKE MICHIGAN

STATION/POSITION TIME  TEMP    WIND        PRES    WAVE
                       AIR SEA DIR/SP/G            HT/PER
                 (UTC) (F)     (DEG/KT/KT) (MB)    (FT/S)
S GREEN BAY BUOY 0100   53 58   20/  6/  6 1003.5F
N MID LAKE BUOY  0050   54 57  360/ 12/ 14 1003.2F   1/ 3
NORTHPORT PIER   0040   53     350/  6/  7 1003.4S
KEWAUNEE LAKESHO 0048   49     310/  3/  4 1002.5F
SHEBOYGAN LAKESH 0100   50     360/  8/  8 1002.6F
PORT WASHINGTON  0030   51      CALM  /  1 1004.4F
MILWAUKEE LAKESH 0050   52     330/  3/  4   N/A
S MID LAKE BUOY  0050   55 60  320/ 17/ 19 1002.8F   3/ 5
KENOSHA   LAKESH 0100   52      CALM  /  2 1003.7
$$

TC  - TEMPERATURE IN CELSIUS
VSB - VISIBILITY IN STATUTE MILES
WCI - WIND CHILL INDEX
HX  - HEAT INDEX





USA.gov is the U.S. government's official web portal to all federal, state and local government web resources and services.